EW5712 Weather Reports


Display with metric or nautical units.
time (UTC)temp
F
wind
direction
speed
MPH
gust
MPH
rain 1hr
in
rain 24hr
in
rain mn
in
humidity
%
barometer
mb
20260504100513 42 303 0.0 0.0 0.00 0.00 0.00 70 1011.1
20260504080558 44 304 0.0 0.0 0.00 0.00 0.00 68 1011.3
20260504050422 46 304 0.0 0.0 0.00 0.00 0.00 63 1010.9
20260504045421 46 304 0.0 0.0 0.00 0.00 0.00 63 1010.7
20260504042440 47 304 0.0 0.0 0.00 0.00 0.00 60 1010.6
20260504041440 47 304 0.0 0.0 0.00 0.00 0.00 59 1010.6
20260504040501 47 304 0.0 0.0 0.00 0.00 0.00 58 1010.5
20260504035504 47 304 0.0 0.0 0.00 0.00 0.00 58 1010.6
20260504034459 47 304 0.0 0.0 0.00 0.00 0.00 58 1010.5
20260504033435 48 304 0.0 0.0 0.00 0.00 0.00 58 1010.6
20260504032423 48 304 0.0 0.0 0.00 0.00 0.00 57 1010.5
20260504030405 48 304 0.0 0.0 0.00 0.00 0.00 58 1010.5
20260504025400 48 304 0.0 0.0 0.00 0.00 0.00 58 1010.5
20260504024403 48 304 0.0 0.0 0.00 0.00 0.00 57 1010.6
20260504023359 48 304 0.0 0.0 0.00 0.00 0.00 58 1010.6
20260504022402 49 304 0.0 0.0 0.00 0.00 0.00 57 1010.5
20260504021411 49 304 0.0 0.0 0.00 0.00 0.00 58 1010.4
20260504020418 50 304 0.0 0.0 0.00 0.00 0.00 56 1010.3
20260504014354 51 304 0.0 0.0 0.00 0.00 0.00 53 1010.1
20260504012415 52 304 0.0 0.0 0.00 0.00 0.00 52 1010.0
20260504011407 52 304 0.0 0.0 0.00 0.00 0.00 50 1010.0
20260504010358 53 304 0.0 0.0 0.00 0.00 0.00 51 1009.9
20260504004338 54 304 0.0 0.0 0.00 0.00 0.00 46 1009.6
20260504003333 55 304 0.0 0.0 0.00 0.00 0.00 45 1009.6
20260504002352 55 304 0.0 0.0 0.00 0.00 0.00 44 1009.5
20260504001347 55 304 0.0 0.0 0.00 0.00 0.00 43 1009.5
20260504000342 56 304 0.0 0.0 0.00 0.00 0.00 42 1009.5
20260503235332 56 303 0.0 0.0 0.00 0.00 0.00 42 1009.4
20260503234309 56 303 0.0 0.0 0.00 0.00 0.00 40 1009.4
20260503231326 58 292 0.0 0.0 0.00 0.00 0.00 39 1009.4
20260503230310 58 290 0.0 4.0 0.00 0.00 0.00 40 1009.2
20260503225300 58 307 0.0 2.0 0.00 0.00 0.00 40 1009.2
20260503224302 58 302 0.0 0.0 0.00 0.00 0.00 40 1009.3
20260503222304 58 312 0.0 0.0 0.00 0.00 0.00 38 1009.4
20260503215312 59 309 0.0 0.0 0.00 0.00 0.00 36 1009.4
20260503214319 59 299 0.0 0.0 0.00 0.00 0.00 37 1009.3
20260503213327 59 348 0.0 0.0 0.00 0.00 0.00 35 1009.3
20260503212259 60 344 0.0 0.0 0.00 0.00 0.00 34 1009.1
20260503211249 60 329 0.0 0.0 0.00 0.00 0.00 34 1009.0
20260503210257 59 269 0.0 0.0 0.00 0.00 0.00 34 1009.1
20260503205312 60 304 0.0 0.0 0.00 0.00 0.00 33 1009.1
20260503204323 60 310 0.0 0.0 0.00 0.00 0.00 34 1009.1
20260503203318 60 305 0.0 0.0 0.00 0.00 0.00 33 1009.2
20260503202330 60 298 0.0 0.0 0.00 0.00 0.00 35 1009.3
20260503201340 61 238 0.0 2.0 0.00 0.00 0.00 33 1009.5
20260503195336 60 325 0.0 0.0 0.00 0.00 0.00 35 1009.9
20260503194322 58 296 0.0 0.0 0.00 0.00 0.00 36 1009.9
20260503193313 58 308 0.0 0.0 0.00 0.00 0.00 35 1010.2
20260503191332 59 313 0.0 0.0 0.00 0.00 0.00 35 1010.6
20260503190320 58 298 0.0 0.0 0.00 0.00 0.00 35 1010.6
20260503185258 58 315 0.0 0.0 0.00 0.00 0.00 37 1010.8
20260503184239 57 182 0.0 0.0 0.00 0.00 0.00 35 1010.7
20260503182242 56 301 0.0 1.0 0.00 0.00 0.00 37 1010.9
20260503181237 55 286 0.0 0.0 0.00 0.00 0.00 35 1011.0
20260503174225 55 292 0.0 0.0 0.00 0.00 0.00 38 1011.2
20260503172209 53 291 0.0 0.0 0.00 0.00 0.00 39 1011.1
20260503171217 53 42 0.0 0.0 0.00 0.00 0.00 39 1011.3
20260503160208 50 297 0.0 0.0 0.00 0.00 0.00 42 1012.1
20260503150229 46 322 0.0 0.0 0.00 0.00 0.00 50 1012.1
20260503131226 41 296 0.0 0.0 0.00 0.00 0.00 72 1012.5
20260503130249 41 243 0.0 0.0 0.00 0.00 0.00 73 1012.5